Location: Caltech
(34.1382°N, 118.1253°W)
Time: 04:34:51
(UTC-07:00)

Oscar 11 - Visible Passes

Search period start: 28 June 2016 00:00
Search period end: 08 July 2016 00:00
Orbit: 616 x 625 km, 97.7° (Epoch: 28 June)

Date Brightness Start Highest point End Pass type
(mag) Time Alt. Az. Time Alt. Az. Time Alt. Az.
28 Jun 7.0 21:26:29 17° SSE 21:29:46 85° ENE 21:34:09 10° N visible
29 Jun 7.5 21:44:08 18° S 21:47:13 58° W 21:51:31 10° NNW visible
30 Jun 8.4 22:01:45 16° SSW 22:04:42 35° W 22:08:42 10° NNW visible
01 Jul 8.3 20:42:36 10° SE 20:46:11 26° ENE 20:49:47 10° NNE visible
01 Jul 9.1 22:19:23 12° SW 22:22:13 22° W 22:25:37 10° NW visible
02 Jul 7.7 20:59:51 12° SE 21:03:31 40° ENE 21:07:36 10° N visible
02 Jul 9.7 22:37:33 10° SW 22:39:48 14° W 22:42:02 10° WNW visible
03 Jul 7.1 21:17:30 16° SSE 21:20:54 67° ENE 21:25:13 10° N visible
04 Jul 7.2 21:35:08 18° S 21:38:19 75° WSW 21:42:41 10° NNW visible
05 Jul 8.0 21:52:46 17° SSW 21:55:47 45° W 21:59:58 10° NNW visible
06 Jul 8.6 20:34:07 10° ESE 20:37:22 21° ENE 20:40:36 10° NNE visible
06 Jul 8.8 22:10:25 15° SSW 22:13:17 28° W 22:17:02 10° NW visible
07 Jul 8.0 20:50:54 10° SE 20:54:40 32° ENE 20:58:34 10° N visible
07 Jul 9.5 22:28:04 11° SW 22:30:49 17° W 22:33:45 10° NW visible
